Vorticity
9 14 9 17 18 9 10 10 8 8 8 6 5 2 17 9 9 9 9 9 9 7 10 1 7 9 8 9 7 6 5 2 2 3 2 3 3 3 5 8 6 9 10 8
2 18 7 17 11 13 14 7 5 10 10 15 10 -7 29 -0 9 11 7 4 5 7 7 8 6 6 5 6 6 6 5 4 5 4 3 3 4 6 9 9 11 10 3 3
4 13 7 6 6 14 11 4 7 2 12 16 17 17 9 10 -3 23 8 6 14 11 8 7 8 7 7 7 6 6 4 3 3 5 6 7 7 8 9 10 9 3 5 1
5 8 10 8 0 7 15 7 4 16 14 2 17 7 13 6 1 4 7 10 7 7 8 8 7 7 6 7 7 5 3 4 5 5 6 4 6 9 8 6 7 6 5 1
-2 10 15 4 8 6 8 16 6 8 4 13 11 6 9 7 7 10 4 5 3 4 4 2 2 2 2 3 4 4 4 4 4 6 7 8 7 8 4 6 2 3 8 12
4 9 17 9 3 9 16 3 4 7 15 6 2 2 17 8 10 11 4 0 -1 0 5 4 7 7 3 -2 4 6 10 13 13 10 10 8 6 5 3 3 3 4 4 9
16 7 10 9 4 14 14 3 6 8 17 9 11 11 6 7 16 13 8 2 -6 -3 6 -3 15 10 6 10 3 7 4 15 11 9 11 10 8 6 8 -6 17 2 4 10
6 6 8 13 8 14 8 1 -1 6 6 7 7 5 15 7 11 11 11 11 19 16 15 3 10 12 0 2 1 7 11 11 6 5 5 6 4 8 7 -9 32 5 3 5
10 4 9 15 8 12 8 4 2 -5 -0 5 1 4 19 11 12 7 6 10 -1 10 10 14 9 4 5 6 7 6 14 7 5 4 3 4 6 3 7 -0 10 3 7 4
4 1 8 7 13 9 10 5 1 6 7 6 6 8 9 14 19 12 13 14 9 4 2 2 6 13 13 14 13 11 12 8 3 4 4 3 3 3 0 18 10 -1 4 22
5 7 7 5 16 12 9 6 1 0 3 6 2 -0 20 7 16 13 8 12 9 4 7 7 11 7 13 11 10 9 8 6 8 4 2 2 4 5 3 11 -2 7 35 -9
8 5 5 4 11 13 9 13 4 7 4 4 1 4 -12 23 9 11 5 7 12 10 10 10 2 5 2 5 8 9 8 7 5 3 2 -1 4 7 4 7 5 13 -3 14
4 1 6 3 9 10 11 11 14 11 6 6 20 -7 6 17 12 -3 3 4 5 8 10 9 10 12 9 -0 -1 0 1 1 2 2 5 2 7 4 4 8 10 15 9 4
2 7 5 7 8 10 10 8 2 4 8 7 4 3 4 24 13 12 4 6 7 7 6 8 9 15 15 9 8 5 3 2 1 4 8 7 6 6 5 11 5 9 5 7
1 0 5 9 11 9 7 11 15 7 7 5 13 13 4 10 4 8 10 6 5 8 7 5 7 11 12 17 15 13 15 16 14 12 13 11 10 9 8 9 7 8 8 10
1 3 5 6 6 10 9 14 10 11 9 12 8 9 5 16 16 5 3 7 6 6 5 6 8 9 10 9 9 11 11 11 11 10 11 10 11 9 8 8 9 8 7 7
7 5 5 5 3 4 3 25 12 13 15 15 9 6 12 12 21 14 10 9 8 6 8 9 8 12 11 10 7 6 6 8 7 7 10 8 8 7 7 6 6 6 6 7
11 8 6 6 5 -4 8 7 7 9 11 8 10 12 11 12 11 10 7 7 9 8 11 13 13 14 16 15 13 12 10 8 9 8 7 6 7 6 5 6 5 5 6 8
7 8 6 7 6 5 5 14 11 8 13 14 14 8 7 10 9 10 10 9 10 13 14 14 14 14 14 12 9 8 8 11 7 7 6 6 5 6 6 3 4 6 8 9
8 8 6 6 2 3 5 7 5 9 24 8 8 10 8 4 5 6 6 5 8 10 11 12 11 9 8 8 9 11 8 8 7 7 6 6 6 4 4 4 5 9 9 10
1 3 3 5 5 4 4 7 9 9 -15 9 2 6 4 3 6 5 9 9 9 12 11 11 11 10 10 10 7 8 7 6 6 5 6 4 4 6 5 6 9 10 12 11
7 7 3 6 7 1 -4 3 6 6 9 10 10 8 9 5 5 6 8 12 10 13 11 10 10 8 6 6 6 5 5 5 5 5 4 5 6 5 6 9 9 10 10 8
10 8 7 5 3 3 2 7 10 11 8 6 9 6 6 4 7 5 8 13 11 7 9 14 7 3 5 6 5 4 4 4 4 3 5 5 5 6 9 11 11 10 8 8
-1 12 9 15 6 9 8 4 9 8 5 7 7 5 11 7 7 9 10 12 12 10 14 6 5 6 5 4 4 4 4 5 5 5 6 5 6 10 11 10 8 7 10 14
6 2 3 9 -0 4 5 8 3 4 9 12 10 6 2 13 18 13 11 12 15 14 7 6 5 5 5 5 5 5 4 4 5 5 6 6 10 11 10 6 10 15 11 3
19 21 17 10 6 2 4 12 2 8 3 6 -2 9 -3 22 9 3 11 12 10 5 5 6 5 5 5 5 4 3 3 5 6 6 7 11 11 8 7 13 14 6 6 5
Height
5762 5759 5758 5756 5754 5756 5757 5757 5758 5757 5756 5757 5758 5758 5760 5759 5757 5757 5756 5756 5757 5758 5759 5761 5762 5762 5763 5765 5766 5766 5767 5768 5768 5770 5772 5773 5775 5776 5779 5781 5780 5782 5782 5782
5759 5757 5756 5754 5753 5753 5754 5755 5757 5756 5755 5756 5757 5757 5759 5758 5757 5757 5757 5757 5758 5758 5759 5761 5762 5763 5764 5766 5767 5768 5769 5770 5771 5773 5774 5774 5775 5775 5776 5777 5779 5779 5778 5778
5755 5754 5753 5752 5751 5751 5752 5752 5753 5755 5755 5755 5755 5758 5757 5758 5758 5757 5757 5758 5758 5759 5760 5760 5762 5763 5764 5765 5766 5768 5769 5770 5771 5771 5771 5772 5772 5773 5775 5775 5776 5776 5774 5774
5750 5750 5750 5749 5749 5750 5751 5750 5750 5751 5753 5757 5755 5758 5757 5758 5758 5758 5758 5759 5759 5759 5760 5761 5762 5762 5763 5763 5764 5765 5766 5767 5768 5769 5770 5769 5770 5769 5770 5771 5772 5770 5769 5768
5746 5746 5745 5746 5747 5747 5749 5748 5748 5749 5751 5753 5754 5756 5758 5757 5758 5759 5758 5758 5758 5759 5759 5760 5760 5761 5762 5762 5763 5764 5765 5765 5765 5766 5765 5765 5766 5767 5767 5766 5764 5764 5764 5763
5740 5742 5742 5743 5744 5744 5745 5746 5747 5748 5750 5752 5752 5754 5757 5757 5756 5756 5757 5757 5757 5757 5758 5759 5759 5759 5761 5761 5761 5762 5763 5763 5763 5763 5762 5762 5761 5761 5760 5759 5759 5759 5757 5755
5736 5737 5738 5739 5741 5741 5743 5745 5748 5748 5748 5751 5750 5752 5753 5753 5753 5753 5754 5755 5755 5755 5755 5756 5756 5757 5758 5758 5758 5758 5758 5757 5758 5758 5758 5757 5757 5756 5756 5755 5753 5751 5750 5749
5731 5733 5734 5736 5737 5738 5740 5743 5745 5746 5747 5748 5748 5750 5751 5749 5750 5751 5751 5751 5752 5752 5751 5751 5752 5753 5753 5753 5753 5755 5755 5755 5754 5754 5754 5753 5752 5752 5750 5748 5745 5744 5742 5740
5726 5728 5729 5730 5732 5735 5736 5739 5741 5743 5744 5745 5746 5746 5745 5744 5745 5746 5747 5748 5748 5748 5748 5748 5748 5748 5749 5749 5749 5750 5751 5751 5750 5750 5749 5748 5747 5745 5745 5741 5738 5735 5733 5731
5721 5723 5724 5726 5728 5730 5732 5735 5737 5738 5740 5741 5742 5743 5743 5739 5740 5741 5741 5742 5743 5744 5744 5745 5745 5745 5744 5744 5744 5745 5746 5746 5746 5745 5745 5743 5742 5739 5737 5733 5730 5728 5724 5721
5715 5717 5719 5721 5723 5726 5728 5729 5731 5734 5735 5737 5737 5739 5737 5736 5735 5736 5737 5737 5738 5739 5740 5741 5741 5741 5741 5741 5740 5740 5740 5741 5741 5740 5739 5738 5736 5733 5730 5726 5723 5719 5715 5712
5710 5712 5713 5716 5717 5719 5721 5723 5725 5728 5731 5733 5733 5736 5735 5734 5732 5731 5732 5733 5734 5735 5735 5736 5736 5736 5736 5736 5736 5735 5735 5735 5734 5733 5732 5731 5729 5726 5722 5718 5715 5711 5707 5704
5703 5705 5707 5710 5713 5714 5716 5719 5721 5723 5725 5727 5729 5732 5728 5729 5727 5728 5726 5726 5727 5729 5729 5730 5730 5730 5730 5730 5729 5729 5728 5727 5726 5725 5724 5723 5720 5716 5713 5710 5706 5703 5700 5696
5695 5697 5702 5706 5708 5709 5711 5714 5715 5717 5716 5721 5721 5723 5723 5722 5722 5723 5722 5721 5721 5721 5722 5721 5722 5722 5721 5721 5720 5719 5718 5718 5718 5716 5714 5712 5710 5707 5704 5701 5697 5693 5689 5686
5686 5689 5696 5700 5702 5703 5705 5708 5708 5709 5712 5712 5717 5716 5716 5716 5715 5716 5716 5716 5716 5716 5716 5715 5713 5713 5713 5712 5710 5710 5710 5710 5709 5707 5705 5703 5700 5698 5694 5691 5686 5682 5677 5673
5679 5683 5690 5693 5695 5697 5699 5702 5701 5703 5704 5706 5708 5710 5708 5709 5709 5709 5710 5709 5709 5709 5709 5709 5707 5705 5704 5703 5702 5701 5700 5698 5697 5696 5695 5693 5690 5687 5684 5680 5675 5670 5665 5659
5672 5677 5683 5687 5689 5690 5694 5697 5696 5697 5699 5700 5700 5702 5701 5701 5702 5702 5702 5702 5701 5701 5700 5699 5698 5697 5696 5695 5694 5693 5692 5690 5688 5686 5684 5682 5679 5676 5672 5667 5662 5657 5651 5645
5666 5671 5677 5680 5682 5682 5691 5690 5690 5691 5693 5692 5693 5694 5695 5694 5693 5694 5694 5694 5693 5692 5691 5690 5688 5688 5687 5686 5685 5684 5683 5682 5680 5677 5674 5671 5668 5664 5660 5655 5650 5645 5639 5633
5659 5664 5668 5671 5675 5679 5682 5685 5686 5684 5687 5686 5687 5686 5687 5688 5688 5688 5687 5686 5684 5683 5681 5680 5679 5678 5678 5677 5677 5675 5674 5672 5670 5667 5664 5661 5656 5652 5648 5644 5638 5632 5625 5618
5652 5657 5661 5664 5667 5670 5678 5679 5680 5679 5682 5679 5679 5680 5679 5679 5680 5680 5679 5678 5676 5674 5672 5671 5670 5669 5668 5668 5667 5665 5664 5662 5660 5657 5653 5649 5645 5640 5635 5630 5624 5617 5610 5603
5645 5649 5652 5658 5660 5665 5669 5672 5672 5672 5680 5670 5672 5673 5672 5671 5672 5672 5670 5669 5668 5666 5663 5662 5661 5660 5659 5658 5657 5656 5654 5652 5649 5646 5642 5637 5633 5628 5622 5616 5610 5603 5596 5589
5639 5644 5648 5652 5653 5657 5664 5665 5666 5667 5665 5664 5664 5665 5664 5663 5663 5662 5661 5660 5659 5657 5656 5654 5653 5651 5650 5649 5648 5646 5643 5641 5638 5634 5629 5625 5620 5614 5608 5601 5594 5587 5580 5574
5630 5635 5642 5645 5648 5652 5654 5656 5657 5658 5656 5656 5656 5655 5655 5655 5655 5653 5652 5651 5649 5648 5647 5646 5645 5643 5642 5640 5638 5635 5632 5629 5625 5621 5616 5611 5605 5599 5591 5585 5578 5572 5565 5558
5622 5628 5629 5636 5640 5644 5646 5647 5648 5647 5647 5648 5647 5646 5646 5646 5645 5644 5642 5641 5639 5638 5637 5636 5635 5634 5632 5629 5627 5624 5620 5617 5613 5608 5603 5597 5590 5583 5577 5570 5563 5555 5548 5540
5615 5619 5621 5624 5630 5636 5638 5638 5638 5637 5639 5639 5638 5638 5637 5636 5634 5634 5632 5631 5629 5628 5627 5626 5625 5623 5621 5618 5615 5612 5608 5604 5599 5594 5588 5581 5574 5567 5560 5553 5545 5537 5530 5523
5605 5611 5614 5618 5624 5625 5627 5628 5629 5629 5630 5630 5629 5628 5627 5624 5624 5623 5622 5621 5620 5619 5618 5616 5614 5612 5609 5606 5603 5599 5595 5590 5584 5578 5571 5564 5557 5550 5542 5535 5528 5520 5511 5503